Total_Precipitation_Accumulation
0.00 0.00 0.00 0.00 0.00 0.00 0.00 0.00 0.01 0.01 0.00 0.01 0.01 0.01 0.01 0.01 0.01 0.00 0.00 0.00 0.00 0.01 0.01 0.01 0.02 0.02 0.02 0.01 0.01 0.02 0.02 0.02 0.02 0.02 0.03 0.05 0.06 0.07 0.08 0.11 0.24 0.26 0.17
0.00 0.00 0.00 0.00 0.00 0.00 0.00 0.00 0.01 0.01 0.00 0.00 0.01 0.01 0.01 0.01 0.01 0.00 0.00 0.00 0.00 0.01 0.01 0.02 0.02 0.02 0.02 0.01 0.01 0.00 0.00 0.01 0.00 0.01 0.03 0.04 0.06 0.09 0.08 0.08 0.21 0.26 0.12
0.00 0.00 0.00 0.00 0.00 0.00 0.00 0.00 0.00 0.00 0.00 0.00 0.00 0.00 0.01 0.01 0.00 0.00 0.00 0.00 0.00 0.01 0.01 0.02 0.02 0.02 0.01 0.01 0.00 0.00 0.00 0.00 0.00 0.01 0.04 0.07 0.04 0.08 0.10 0.06 0.07 0.07 0.06
0.00 0.00 0.00 0.00 0.00 0.00 0.00 0.00 0.00 0.00 0.00 0.00 0.00 0.00 0.00 0.00 0.00 0.01 0.01 0.01 0.01 0.02 0.02 0.02 0.02 0.02 0.01 0.00 0.00 0.00 0.00 0.01 0.01 0.02 0.15 0.30 0.20 0.05 0.06 0.03 0.02 0.03 0.04
0.00 0.00 0.00 0.00 0.00 0.00 0.00 0.00 0.00 0.00 0.00 0.00 0.00 0.00 0.00 0.01 0.01 0.01 0.01 0.01 0.01 0.02 0.03 0.03 0.03 0.02 0.01 0.01 0.00 0.00 0.00 0.01 0.01 0.03 0.12 0.27 0.32 0.13 0.04 0.02 0.02 0.02 0.02
0.00 0.00 0.00 0.00 0.00 0.00 0.00 0.00 0.00 0.00 0.00 0.00 0.00 0.00 0.01 0.01 0.02 0.02 0.02 0.02 0.02 0.03 0.04 0.03 0.02 0.02 0.01 0.01 0.00 0.00 0.00 0.00 0.01 0.04 0.08 0.10 0.18 0.16 0.07 0.03 0.01 0.01 0.01
0.00 0.00 0.00 0.01 0.00 0.00 0.00 0.00 0.00 0.00 0.00 0.00 0.00 0.00 0.01 0.01 0.01 0.02 0.02 0.02 0.02 0.02 0.03 0.02 0.02 0.02 0.02 0.02 0.02 0.02 0.01 0.00 0.01 0.04 0.08 0.09 0.12 0.12 0.12 0.07 0.03 0.02 0.01
0.00 0.00 0.00 0.01 0.01 0.01 0.01 0.00 0.00 0.01 0.01 0.01 0.00 0.00 0.00 0.01 0.01 0.01 0.02 0.01 0.01 0.02 0.02 0.02 0.01 0.01 0.01 0.02 0.03 0.04 0.04 0.02 0.01 0.03 0.06 0.10 0.19 0.17 0.23 0.19 0.09 0.04 0.04
0.01 0.00 0.01 0.01 0.02 0.02 0.01 0.01 0.01 0.01 0.01 0.01 0.00 0.00 0.00 0.00 0.00 0.01 0.01 0.02 0.02 0.02 0.02 0.01 0.02 0.01 0.01 0.02 0.03 0.03 0.03 0.02 0.01 0.02 0.03 0.06 0.15 0.23 0.43 0.42 0.28 0.17 0.13
0.02 0.01 0.01 0.02 0.03 0.04 0.04 0.03 0.02 0.02 0.02 0.01 0.01 0.01 0.01 0.00 0.00 0.00 0.01 0.02 0.03 0.03 0.03 0.03 0.02 0.02 0.03 0.05 0.06 0.08 0.10 0.05 0.01 0.02 0.01 0.03 0.13 0.30 0.52 0.57 0.50 0.43 0.33
0.04 0.03 0.04 0.06 0.08 0.09 0.09 0.10 0.10 0.09 0.08 0.06 0.04 0.02 0.01 0.01 0.02 0.05 0.08 0.10 0.11 0.12 0.12 0.12 0.11 0.11 0.11 0.07 0.14 0.21 0.16 0.03 0.01 0.02 0.01 0.04 0.15 0.39 0.51 0.59 0.56 0.53 0.51
0.07 0.10 0.08 0.09 0.10 0.12 0.13 0.22 0.25 0.24 0.27 0.23 0.20 0.21 0.19 0.15 0.10 0.10 0.22 0.28 0.37 0.47 0.43 0.40 0.54 0.47 0.28 0.15 0.26 0.38 0.19 0.09 0.05 0.04 0.04 0.08 0.18 0.39 0.50 0.49 0.50 0.51 0.54
0.12 0.12 0.10 0.10 0.12 0.14 0.20 0.25 0.28 0.30 0.41 0.47 0.53 0.59 0.61 0.52 0.38 0.31 0.45 0.58 0.60 0.63 0.51 0.66 0.90 0.58 0.43 0.39 0.41 0.44 0.35 0.28 0.18 0.17 0.17 0.18 0.28 0.51 0.60 0.47 0.47 0.50 0.46
0.20 0.21 0.21 0.17 0.16 0.18 0.22 0.24 0.24 0.24 0.30 0.40 0.58 0.77 0.89 0.83 0.69 0.69 0.75 0.63 0.58 0.60 0.75 0.80 0.87 0.70 0.59 0.54 0.54 0.60 0.68 0.53 0.36 0.33 0.39 0.46 0.51 0.63 0.68 0.58 0.54 0.51 0.46
0.38 0.50 0.53 0.48 0.42 0.36 0.30 0.27 0.24 0.24 0.26 0.35 0.51 0.79 0.99 1.01 1.01 1.08 0.94 0.79 0.63 0.81 1.06 1.07 0.95 0.95 0.94 0.99 0.99 1.00 0.95 0.65 0.45 0.38 0.45 0.67 0.68 0.68 0.74 0.75 0.71 0.64 0.63
0.64 0.83 0.87 0.94 0.90 0.75 0.58 0.47 0.47 0.47 0.51 0.60 0.68 0.81 1.02 1.10 1.13 1.13 1.05 0.94 0.88 1.00 1.16 1.18 1.12 1.25 1.24 1.17 0.91 0.76 0.75 0.74 0.64 0.48 0.47 0.59 0.65 0.57 0.61 0.71 0.73 0.70 0.74
1.04 1.32 1.49 1.51 1.46 1.38 1.22 0.99 0.85 0.76 0.76 0.80 0.86 0.82 0.88 0.97 0.98 1.06 1.03 0.98 1.02 1.08 1.11 1.09 1.09 1.23 1.16 1.02 0.83 0.71 0.67 0.64 0.64 0.56 0.46 0.48 0.57 0.59 0.52 0.56 0.60 0.61 0.63
1.69 2.14 2.38 2.36 2.18 1.83 1.52 1.33 1.19 1.10 1.06 0.94 0.87 0.76 0.65 0.71 0.77 0.83 0.80 0.82 0.87 0.93 0.93 0.89 0.90 0.98 1.01 1.06 1.01 0.83 0.81 0.75 0.70 0.71 0.67 0.58 0.57 0.55 0.66 0.68 0.64 0.56 0.59
2.82 3.35 3.30 2.88 2.56 2.04 1.57 1.34 1.32 1.36 1.27 1.11 0.99 0.86 0.70 0.65 0.69 0.74 0.72 0.70 0.69 0.72 0.73 0.70 0.75 0.82 0.86 0.90 0.87 0.84 0.78 0.72 0.65 0.64 0.76 0.65 0.62 0.63 0.68 0.66 0.64 0.56 0.56
3.34 4.03 3.98 3.34 2.65 2.12 1.78 1.55 1.39 1.34 1.22 1.06 0.97 0.85 0.70 0.62 0.61 0.59 0.57 0.53 0.50 0.51 0.54 0.57 0.64 0.72 0.74 0.77 0.72 0.70 0.66 0.56 0.52 0.52 0.49 0.47 0.49 0.50 0.58 0.64 0.58 0.45 0.49
2.65 3.12 3.14 2.52 2.02 1.71 1.43 1.07 0.91 0.88 0.80 0.71 0.69 0.64 0.61 0.56 0.52 0.47 0.41 0.39 0.35 0.34 0.36 0.38 0.46 0.53 0.56 0.62 0.68 0.62 0.53 0.45 0.41 0.40 0.35 0.30 0.32 0.42 0.51 0.61 0.60 0.53 0.43
1.66 1.75 1.38 1.10 0.92 0.78 0.68 0.51 0.41 0.37 0.35 0.34 0.35 0.35 0.33 0.37 0.40 0.39 0.37 0.36 0.34 0.33 0.31 0.34 0.39 0.42 0.45 0.51 0.54 0.48 0.40 0.36 0.30 0.23 0.26 0.25 0.24 0.37 0.47 0.49 0.51 0.50 0.40
1.04 0.90 0.61 0.47 0.47 0.41 0.33 0.25 0.22 0.21 0.21 0.21 0.22 0.22 0.22 0.23 0.26 0.29 0.33 0.36 0.35 0.31 0.29 0.30 0.32 0.32 0.32 0.35 0.41 0.41 0.33 0.25 0.21 0.20 0.22 0.22 0.22 0.27 0.32 0.43 0.43 0.34 0.35
0.47 0.48 0.51 0.52 0.41 0.30 0.26 0.19 0.14 0.13 0.13 0.13 0.15 0.15 0.17 0.16 0.16 0.18 0.24 0.29 0.30 0.31 0.30 0.24 0.24 0.29 0.29 0.26 0.27 0.30 0.25 0.23 0.24 0.23 0.22 0.23 0.26 0.25 0.24 0.29 0.33 0.32 0.29
0.28 0.47 0.68 0.66 0.45 0.31 0.27 0.23 0.21 0.19 0.18 0.17 0.17 0.18 0.20 0.20 0.20 0.17 0.17 0.22 0.27 0.33 0.38 0.34 0.31 0.29 0.27 0.23 0.23 0.29 0.27 0.20 0.21 0.24 0.23 0.22 0.24 0.17 0.14 0.15 0.16 0.20 0.20
0.26 0.33 0.42 0.49 0.56 0.51 0.46 0.37 0.34 0.33 0.31 0.28 0.26 0.25 0.25 0.26 0.28 0.27 0.27 0.30 0.33 0.33 0.34 0.36 0.39 0.37 0.35 0.31 0.24 0.26 0.38 0.33 0.20 0.22 0.22 0.24 0.22 0.10 0.09 0.13 0.15 0.16 0.20